Wind_Speed
24 25 26 27 29 29 31 32 33 33 34 34 34 34 34 34 34 36 36 36 36 36 36 36 37 37 37 37 37 37 37 37 38 38 39 39 40 39 39 39 39 39 39
24 24 25 26 28 29 30 32 33 34 34 34 34 34 34 34 34 35 35 36 36 37 37 37 37 37 37 37 37 37 37 38 38 39 39 39 40 39 40 40 41 40 40
23 24 25 26 27 29 30 31 32 33 34 35 35 35 35 36 36 36 36 37 38 37 37 37 37 36 36 36 37 38 39 39 39 39 39 39 39 39 40 40 41 40 40
23 24 25 26 27 28 29 30 31 31 32 33 33 34 34 36 37 37 38 38 39 39 39 38 38 37 37 37 37 38 38 38 38 38 38 38 39 39 39 39 40 40 40
23 24 25 26 27 28 28 29 29 29 30 31 32 32 33 33 34 35 36 37 38 38 38 39 39 38 38 38 38 38 38 38 38 38 37 37 38 39 40 39 39 40 40
23 24 25 25 26 27 27 27 28 29 29 30 31 32 31 32 33 33 33 34 35 36 37 38 38 38 38 38 39 39 39 39 39 38 38 37 37 38 39 39 39 40 40
22 23 24 25 26 27 28 28 29 30 30 31 31 32 33 33 33 33 33 33 34 35 36 36 37 38 38 38 38 39 39 39 39 39 39 39 38 38 38 38 39 39 40
21 22 23 25 26 27 28 29 30 31 31 32 33 33 34 34 33 33 33 33 33 33 34 35 36 37 38 38 38 39 39 39 40 40 40 40 39 39 39 39 39 40 40
22 24 25 26 27 28 29 30 30 32 32 33 33 34 34 33 33 33 33 33 33 34 34 35 35 36 37 38 39 39 39 39 40 40 39 39 40 40 40 40 40 40 40
24 25 26 27 28 29 30 31 32 32 33 34 34 35 35 35 35 35 35 35 35 35 35 36 36 36 36 37 38 39 39 39 39 40 40 40 40 40 41 42 42 41 41
26 27 28 29 30 30 31 32 33 34 34 34 35 35 36 37 37 37 36 36 36 36 37 37 37 37 37 37 38 39 40 40 40 41 41 41 42 42 42 42 42 42 41
27 28 29 30 31 31 32 33 34 35 35 35 35 36 36 37 38 38 38 38 38 38 38 38 38 38 38 38 38 39 39 40 40 41 41 42 43 43 43 43 43 43 42
27 28 29 31 32 32 33 34 34 35 36 36 37 37 38 38 39 39 39 39 39 39 39 38 38 37 37 37 37 38 38 38 39 40 41 41 42 42 43 43 43 43 42
28 29 30 31 32 33 33 34 34 35 35 36 37 37 38 38 38 38 38 38 38 38 37 37 36 36 36 37 37 37 37 37 37 38 39 39 40 40 41 42 42 42 42
31 31 31 32 33 33 34 35 35 35 36 36 37 37 37 38 38 37 37 37 37 37 36 36 36 36 36 36 36 36 37 37 37 37 38 38 39 39 39 40 40 41 41
33 33 34 35 35 35 36 36 37 37 38 38 38 38 38 38 39 39 38 38 38 37 36 36 36 36 36 36 36 37 37 37 37 37 37 37 38 38 38 38 39 39 40
35 36 36 36 37 37 38 38 39 39 39 39 39 40 40 40 39 39 39 39 39 38 38 37 37 37 37 37 37 37 37 37 37 37 37 37 37 37 37 37 38 38 38
37 37 38 38 39 39 40 40 40 40 40 40 40 40 41 40 40 40 40 40 39 38 38 38 38 38 38 38 38 38 38 37 37 37 37 37 37 37 38 38 38 38 39
38 39 40 40 41 41 41 41 41 41 41 41 41 41 42 41 41 41 41 41 40 40 39 39 39 39 39 39 39 39 38 38 38 38 38 38 37 38 38 38 38 39 40
41 42 42 42 42 42 43 43 43 43 43 43 43 42 42 42 42 42 41 41 41 40 40 40 40 41 40 41 41 40 39 39 39 38 38 38 38 39 39 40 40 40 40
44 44 44 44 44 44 44 44 44 44 44 44 44 44 43 43 43 43 42 42 42 42 41 41 41 41 42 42 42 41 40 40 39 39 39 39 40 40 41 41 40 40 40
45 45 45 45 45 46 46 46 45 45 45 45 45 45 45 45 45 45 44 44 43 42 42 42 42 42 42 42 42 42 41 41 40 40 40 40 41 41 41 41 41 41 41
47 48 48 48 48 48 47 47 46 46 46 46 46 46 46 46 46 46 45 44 44 44 43 44 43 43 43 42 42 42 42 41 41 41 42 41 41 41 41 41 41 40 40
49 49 50 50 49 48 48 47 47 47 46 46 47 46 46 46 46 46 46 46 45 45 45 45 44 44 43 43 43 42 42 42 41 41 41 41 41 41 41 41 41 40 40
49 49 49 49 49 48 48 47 47 47 47 47 46 46 45 45 45 45 45 45 46 46 46 45 45 44 43 43 43 42 42 42 42 41 41 41 41 41 41 41 41 40 40
49 49 49 49 48 48 47 47 48 47 47 46 46 46 46 45 45 45 45 45 45 45 45 45 44 43 43 42 42 42 42 42 41 41 40 40 40 40 40 40 40 40 39
Wind_Direction
246 245 243 242 243 245 247 249 252 254 256 256 255 255 255 256 256 257 257 258 258 259 259 260 261 261 262 264 263 263 263 263 263 264 265 264 264 264 265 265 266 268 270
243 245 244 245 246 248 250 252 255 256 257 257 257 257 257 258 258 259 259 259 260 261 261 261 262 261 263 265 265 264 264 266 265 264 265 266 265 264 265 266 267 268 270
244 246 247 247 249 251 253 255 257 258 258 259 260 259 259 261 261 262 262 262 263 263 262 262 262 263 264 265 265 265 266 267 266 265 266 267 265 264 264 265 266 267 269
247 247 247 248 250 252 254 256 257 259 259 259 261 261 261 262 262 263 263 264 264 264 263 263 264 265 266 266 266 265 265 265 265 265 265 267 266 264 264 265 265 266 268
246 246 247 248 249 252 254 256 258 259 260 260 261 263 263 263 264 265 265 265 264 264 265 265 264 265 266 266 267 266 264 265 264 263 264 267 267 266 266 264 265 267 269
248 248 248 248 249 251 254 257 258 258 259 261 262 263 263 264 265 266 267 266 265 265 265 266 266 266 267 267 268 267 265 264 264 262 263 266 266 265 266 265 266 269 271
249 249 250 251 251 252 255 258 259 259 260 261 262 262 262 264 266 267 267 268 268 267 267 267 267 267 267 267 268 267 266 265 265 264 263 264 265 265 265 267 268 270 272
252 253 252 252 253 254 257 259 261 261 261 261 261 262 262 263 264 266 267 268 268 268 268 268 268 268 268 268 268 267 266 266 265 264 263 263 264 264 265 267 269 270 271
255 255 254 255 257 257 258 260 261 262 263 262 261 262 262 263 264 266 267 268 268 268 269 269 269 269 269 269 268 267 266 265 265 264 262 263 264 264 265 267 269 271 272
259 259 258 258 259 260 260 260 261 262 263 264 263 262 262 264 265 266 267 268 269 269 269 270 270 269 269 268 267 267 266 265 264 263 262 263 264 264 266 268 270 272 274
263 262 261 261 261 261 262 263 263 263 264 265 265 264 265 265 266 267 267 268 269 269 270 270 270 270 269 268 267 267 266 265 264 263 264 264 264 266 267 268 269 271 273
264 264 264 263 263 263 264 265 265 265 265 265 266 266 266 267 268 268 268 269 269 270 270 270 270 269 268 267 267 266 266 265 265 264 265 265 264 265 266 267 269 271 272
267 267 266 266 266 266 266 266 266 266 265 266 266 266 266 267 268 268 269 269 270 270 270 270 270 270 269 268 267 266 266 266 266 266 265 265 266 266 266 268 270 271 272
271 270 270 269 269 269 269 268 267 267 266 266 267 268 267 267 267 268 269 269 269 270 270 269 269 269 269 269 267 267 266 266 266 267 266 266 266 267 268 268 269 270 271
273 272 272 272 272 271 270 269 269 268 268 268 268 268 268 267 267 268 268 269 269 268 268 268 268 268 269 269 268 267 267 267 267 267 266 266 266 268 268 269 269 269 270
273 273 273 273 273 273 272 271 270 270 270 270 270 269 269 269 269 269 268 269 268 268 268 268 267 268 268 268 268 268 268 267 267 267 266 267 268 268 268 268 269 270 270
273 273 274 273 274 274 274 273 272 271 270 270 271 271 271 270 270 269 269 269 268 267 267 267 267 268 268 268 268 267 267 268 267 267 267 268 268 267 268 268 269 269 270
274 274 275 274 274 274 274 274 273 272 271 271 271 271 271 271 271 270 269 268 267 267 267 267 268 268 268 269 269 268 268 267 267 268 268 268 268 268 269 269 268 269 270
274 275 275 275 275 275 275 275 273 272 272 272 271 271 271 271 271 270 269 268 266 265 266 267 267 268 268 268 268 268 267 267 267 268 268 268 268 269 269 270 270 270 271
274 275 276 276 276 275 275 275 274 273 273 272 272 271 271 271 270 269 268 267 266 266 266 267 267 267 267 268 268 267 267 267 267 268 268 268 268 269 270 271 271 271 271
274 275 276 276 276 276 276 276 275 274 273 272 272 271 270 270 270 269 268 267 266 266 266 266 266 267 267 267 266 266 267 267 267 267 267 268 269 269 270 270 271 271 271
275 276 276 277 277 277 277 277 276 274 273 272 271 270 269 268 268 267 266 266 265 265 264 265 265 266 266 266 265 265 266 266 266 266 267 268 269 269 269 270 271 271 272
275 276 276 277 276 277 277 276 276 275 273 272 271 270 269 268 267 266 265 265 264 264 264 264 264 265 266 266 265 266 266 266 266 266 267 268 268 268 269 270 270 271 271
276 275 275 276 276 276 276 276 275 275 274 273 272 271 270 268 267 266 265 265 265 265 265 265 265 266 266 265 265 265 265 265 266 266 266 267 267 267 268 269 269 270 270
276 276 275 275 275 275 275 275 275 275 275 274 273 271 270 269 267 266 266 266 265 266 266 266 266 266 265 264 264 264 264 265 265 265 265 265 266 267 268 268 269 270 270
275 275 275 275 275 274 274 274 274 275 275 274 273 272 271 269 268 267 267 267 267 266 267 266 266 265 265 263 263 263 264 264 264 264 265 266 266 267 267 268 268 268 269
Height
5745 5746 5748 5751 5753 5755 5756 5758 5759 5759 5760 5761 5761 5762 5763 5764 5765 5765 5766 5767 5768 5768 5769 5770 5771 5771 5772 5772 5772 5773 5774 5774 5775 5776 5776 5777 5778 5779 5779 5780 5780 5781 5781
5741 5742 5744 5746 5747 5749 5750 5751 5752 5752 5753 5753 5754 5755 5756 5756 5757 5757 5758 5759 5759 5760 5760 5761 5762 5762 5763 5764 5764 5765 5765 5766 5766 5767 5767 5768 5769 5769 5770 5770 5771 5771 5771
5736 5738 5739 5740 5742 5743 5744 5745 5745 5745 5746 5746 5746 5746 5748 5748 5749 5749 5750 5750 5751 5751 5751 5752 5753 5754 5754 5755 5755 5756 5756 5757 5757 5758 5758 5759 5760 5760 5761 5761 5761 5762 5762
5731 5732 5734 5735 5736 5737 5738 5738 5738 5739 5739 5738 5738 5739 5740 5741 5741 5741 5742 5742 5742 5742 5743 5743 5744 5745 5745 5746 5746 5747 5747 5748 5748 5748 5749 5750 5750 5750 5752 5752 5752 5752 5753
5725 5727 5728 5729 5729 5730 5731 5731 5731 5732 5732 5731 5732 5732 5732 5733 5733 5733 5733 5733 5733 5734 5734 5734 5735 5736 5736 5737 5737 5737 5738 5738 5739 5739 5740 5740 5740 5740 5741 5743 5743 5743 5743
5720 5721 5721 5722 5723 5723 5724 5724 5724 5725 5725 5725 5725 5725 5725 5725 5725 5725 5725 5725 5725 5725 5725 5726 5726 5727 5727 5727 5728 5728 5728 5729 5730 5730 5731 5732 5732 5732 5732 5732 5733 5734 5734
5714 5714 5715 5716 5716 5717 5717 5717 5717 5717 5717 5717 5717 5717 5717 5717 5717 5717 5717 5717 5717 5717 5717 5717 5717 5717 5718 5718 5718 5718 5719 5719 5720 5721 5722 5723 5723 5723 5723 5723 5724 5724 5724
5708 5708 5709 5709 5709 5710 5710 5710 5710 5710 5709 5709 5709 5709 5709 5709 5709 5709 5709 5708 5708 5708 5708 5708 5708 5708 5708 5708 5708 5708 5709 5710 5711 5711 5712 5713 5714 5714 5714 5714 5714 5714 5714
5701 5702 5702 5702 5702 5702 5702 5702 5702 5701 5701 5701 5701 5701 5701 5701 5701 5701 5700 5700 5700 5700 5700 5700 5700 5699 5699 5699 5699 5699 5700 5700 5701 5702 5702 5703 5704 5704 5704 5704 5704 5704 5704
5694 5694 5694 5694 5694 5694 5694 5693 5693 5693 5693 5692 5692 5692 5692 5692 5692 5692 5692 5691 5691 5691 5691 5691 5690 5690 5690 5689 5689 5690 5690 5691 5691 5692 5693 5694 5694 5694 5694 5694 5694 5694 5693
5687 5687 5687 5686 5686 5686 5685 5685 5684 5684 5683 5683 5682 5682 5682 5682 5682 5682 5682 5682 5682 5681 5681 5681 5681 5681 5680 5680 5680 5680 5681 5681 5682 5682 5683 5683 5683 5684 5684 5683 5684 5683 5683
5679 5679 5678 5678 5678 5677 5677 5676 5675 5674 5674 5673 5673 5673 5673 5673 5672 5672 5672 5672 5672 5672 5671 5671 5671 5671 5671 5670 5671 5671 5671 5671 5671 5671 5672 5672 5672 5672 5672 5672 5673 5672 5672
5671 5670 5670 5669 5669 5668 5667 5667 5666 5665 5664 5664 5663 5663 5663 5663 5662 5662 5662 5662 5661 5661 5661 5661 5661 5661 5661 5661 5661 5661 5661 5661 5661 5661 5661 5661 5661 5661 5661 5661 5661 5661 5661
5662 5661 5660 5660 5659 5658 5657 5657 5656 5655 5654 5654 5653 5653 5652 5652 5652 5651 5651 5651 5651 5651 5651 5651 5651 5651 5651 5651 5651 5651 5651 5651 5651 5651 5650 5650 5650 5650 5650 5650 5650 5649 5649
5653 5652 5651 5650 5649 5648 5647 5646 5645 5644 5644 5643 5643 5642 5642 5641 5641 5641 5640 5640 5640 5640 5641 5641 5641 5641 5641 5641 5641 5641 5641 5641 5641 5640 5640 5640 5639 5639 5638 5638 5638 5638 5638
5643 5642 5640 5639 5638 5637 5636 5635 5634 5633 5633 5632 5632 5631 5630 5630 5630 5630 5629 5629 5629 5630 5630 5630 5630 5630 5630 5630 5630 5630 5630 5630 5630 5630 5630 5629 5629 5628 5628 5628 5628 5627 5627
5632 5631 5629 5628 5626 5625 5624 5623 5622 5621 5621 5620 5620 5620 5619 5619 5618 5618 5618 5618 5618 5619 5619 5619 5620 5620 5620 5620 5620 5620 5620 5620 5620 5620 5619 5619 5618 5618 5618 5617 5617 5617 5616
5620 5619 5617 5616 5615 5613 5612 5611 5610 5609 5609 5608 5608 5607 5607 5607 5607 5606 5606 5606 5607 5607 5608 5608 5609 5609 5609 5609 5609 5608 5609 5609 5609 5609 5608 5608 5608 5607 5607 5606 5606 5606 5606
5607 5606 5605 5603 5602 5601 5599 5599 5598 5597 5596 5596 5595 5595 5594 5594 5594 5594 5594 5594 5595 5595 5596 5597 5597 5597 5598 5597 5597 5597 5597 5598 5598 5598 5597 5597 5597 5596 5596 5596 5596 5595 5595
5594 5593 5592 5590 5589 5588 5586 5586 5585 5584 5583 5582 5582 5582 5581 5581 5581 5581 5582 5582 5582 5583 5584 5584 5585 5585 5586 5585 5585 5585 5586 5586 5586 5586 5586 5586 5586 5585 5585 5585 5584 5584 5583
5581 5579 5578 5577 5576 5574 5573 5572 5571 5570 5569 5568 5568 5568 5568 5568 5568 5568 5569 5569 5570 5571 5571 5572 5573 5573 5573 5573 5573 5573 5573 5574 5574 5575 5575 5574 5574 5574 5573 5573 5573 5572 5571
5567 5565 5564 5563 5562 5560 5558 5558 5557 5555 5554 5554 5554 5554 5554 5554 5554 5554 5555 5555 5556 5557 5558 5559 5560 5560 5560 5560 5560 5560 5561 5562 5562 5563 5563 5562 5562 5561 5561 5561 5561 5560 5559
5552 5551 5549 5548 5547 5545 5543 5543 5542 5540 5540 5539 5539 5539 5539 5539 5539 5540 5540 5541 5542 5543 5545 5545 5546 5547 5547 5547 5547 5548 5548 5549 5550 5550 5550 5550 5549 5549 5549 5548 5548 5547 5547
5537 5535 5534 5533 5532 5530 5529 5527 5526 5525 5525 5524 5524 5524 5524 5524 5524 5525 5526 5527 5528 5529 5530 5531 5532 5533 5533 5534 5534 5535 5535 5536 5536 5537 5537 5537 5536 5536 5536 5536 5535 5535 5535
5521 5519 5518 5517 5516 5515 5514 5513 5511 5510 5510 5510 5509 5509 5509 5509 5509 5510 5511 5512 5513 5513 5515 5516 5517 5518 5519 5520 5520 5521 5522 5522 5523 5523 5524 5523 5523 5523 5523 5523 5523 5523 5523
5505 5504 5503 5502 5501 5500 5499 5498 5497 5496 5495 5495 5495 5494 5494 5494 5494 5495 5496 5496 5498 5498 5499 5500 5502 5503 5504 5505 5506 5507 5508 5508 5509 5510 5510 5510 5510 5511 5511 5511 5511 5511 5511